Terminal Aerodrome Forecast
Issued by NWS Shreveport, LA

Home | Current Version | Previous Version | Text Only | Print | Product List | Glossary On
Versions: 1 2 3 4 5 6 7 8 9 10 11 12 13 14 15 16 17
000
FTUS44 KSHV 300130 AAA
TAFGGG
TAF AMD
KGGG 300130Z 3002/3024 18009KT P6SM SKC
     FM300600 19007KT P6SM OVC025
     FM300900 18006KT 5SM BR BKN008 OVC015
      TEMPO 3009/3012 4SM -SHRA BR BKN004
     FM301200 18005KT 4SM -SHRA BR BKN004 OVC008
     FM302100 18006KT P6SM OVC015=

USA.gov is the U.S. government's official web portal to all federal, state and local government web resources and services.